Time,TemperatureF,DewpointF,PressureIn,WindDirection,WindDirectionDegrees,WindSpeedMPH,WindSpeedGustMPH,Humidity,HourlyPrecipIn,Conditions,Clouds,dailyrainin,SoftwareType,DateUTC
2013-02-11 02:32:00,15.0,10.0,-100.00,NNE,20,1.0,2.0,82,-99.99,,,-99.99,,2013-02-11 07:32:00,
2013-02-11 03:01:00,15.0,10.0,-100.00,NNW,330,0.0,1.0,82,-99.99,,,-99.99,,2013-02-11 08:01:00,
2013-02-11 03:11:00,15.0,11.0,-100.00,NNE,15,2.0,2.0,82,-99.99,,,-99.99,,2013-02-11 08:11:00,
2013-02-11 03:22:00,15.0,11.0,-100.00,ENE,75,0.0,2.0,82,-99.99,,,-99.99,,2013-02-11 08:22:00,
2013-02-11 03:32:00,16.0,11.0,-100.00,North,355,1.0,2.0,82,-99.99,,,-99.99,,2013-02-11 08:32:00,
2013-02-11 03:42:00,16.0,11.0,-100.00,SSW,195,0.0,2.0,82,-99.99,,,-99.99,,2013-02-11 08:42:00,
2013-02-11 03:52:00,15.0,11.0,-100.00,South,180,1.0,2.0,81,-99.99,,,-99.99,,2013-02-11 08:52:00,
2013-02-11 04:02:00,15.0,11.0,-100.00,South,185,0.0,2.0,82,-99.99,,,-99.99,,2013-02-11 09:02:00,
2013-02-11 04:12:00,16.0,11.0,-100.00,North,0,0.0,1.0,82,-99.99,,,-99.99,,2013-02-11 09:12:00,
2013-02-11 04:22:00,16.0,11.0,-100.00,ENE,60,0.0,1.0,81,-99.99,,,-99.99,,2013-02-11 09:22:00,
2013-02-11 04:30:00,17.0,11.0,-100.00,NE,35,2.0,5.0,80,-99.99,,,-99.99,,2013-02-11 09:30:00,
2013-02-11 04:32:00,16.0,11.0,-100.00,NNE,30,2.0,2.0,81,-99.99,,,-99.99,,2013-02-11 09:32:00,
2013-02-11 04:42:00,17.0,11.0,-100.00,NNE,20,2.0,3.0,79,-99.99,,,-99.99,,2013-02-11 09:42:00,
2013-02-11 04:52:00,16.0,11.0,-100.00,NNE,20,2.0,3.0,79,-99.99,,,-99.99,,2013-02-11 09:52:00,
2013-02-11 05:00:00,17.0,11.0,-100.00,SSW,200,0.0,2.0,80,-99.99,,,-99.99,,2013-02-11 10:00:00,
2013-02-11 05:02:00,16.0,11.0,-100.00,NNE,20,2.0,3.0,79,-99.99,,,-99.99,,2013-02-11 10:02:00,
2013-02-11 05:11:00,17.0,11.0,-100.00,NE,35,2.0,5.0,80,-99.99,,,-99.99,,2013-02-11 10:11:00,
2013-02-11 05:21:00,17.0,11.0,-100.00,NE,35,2.0,5.0,80,-99.99,,,-99.99,,2013-02-11 10:21:00,
2013-02-11 05:42:00,17.0,11.0,-100.00,SSW,200,0.0,2.0,80,-99.99,,,-99.99,,2013-02-11 10:42:00,
2013-02-11 05:52:00,17.0,11.0,-100.00,SSW,200,0.0,2.0,80,-99.99,,,-99.99,,2013-02-11 10:52:00,
2013-02-11 07:12:00,18.0,13.0,-100.00,SSW,205,1.0,2.0,79,-99.99,,,-99.99,,2013-02-11 12:12:00,
2013-02-11 07:22:00,18.0,13.0,-100.00,WSW,245,1.0,3.0,81,-99.99,,,-99.99,,2013-02-11 12:22:00,
2013-02-11 07:32:00,18.0,14.0,-100.00,SSW,200,2.0,5.0,86,-99.99,,,-99.99,,2013-02-11 12:32:00,
2013-02-11 07:42:00,18.0,15.0,-100.00,SE,135,0.0,3.0,89,-99.99,,,-99.99,,2013-02-11 12:42:00,
2013-02-11 07:52:00,18.0,15.0,-100.00,SSE,150,1.0,3.0,90,-99.99,,,-99.99,,2013-02-11 12:52:00,
2013-02-11 08:02:00,19.0,16.0,-100.00,SSW,195,0.0,2.0,91,-99.99,,,-99.99,,2013-02-11 13:02:00,
2013-02-11 08:12:00,19.0,16.0,-100.00,SSW,195,1.0,2.0,91,-99.99,,,-99.99,,2013-02-11 13:12:00,
2013-02-11 08:22:00,19.0,17.0,-100.00,SSE,165,1.0,5.0,92,-99.99,,,-99.99,,2013-02-11 13:22:00,
2013-02-11 08:33:00,19.0,17.0,-100.00,SSW,195,1.0,2.0,91,-99.99,,,-99.99,,2013-02-11 13:33:00,
2013-02-11 08:42:00,20.0,17.0,-100.00,SSW,195,1.0,2.0,91,-99.99,,,-99.99,,2013-02-11 13:42:00,
2013-02-11 08:52:00,20.0,18.0,-100.00,WNW,290,1.0,2.0,91,-99.99,,,-99.99,,2013-02-11 13:52:00,
2013-02-11 09:02:00,20.0,18.0,-100.00,WNW,285,0.0,2.0,91,-99.99,,,-99.99,,2013-02-11 14:02:00,
2013-02-11 09:12:00,20.0,18.0,-100.00,West,270,0.0,2.0,91,-99.99,,,-99.99,,2013-02-11 14:12:00,
2013-02-11 09:22:00,20.0,18.0,-100.00,North,5,0.0,1.0,91,-99.99,,,-99.99,,2013-02-11 14:22:00,
2013-02-11 09:33:00,20.0,18.0,-100.00,NNE,20,2.0,5.0,91,-99.99,,,-99.99,,2013-02-11 14:33:00,
2013-02-11 09:42:00,20.0,18.0,-100.00,ENE,75,1.0,3.0,91,-99.99,,,-99.99,,2013-02-11 14:42:00,
2013-02-11 09:52:00,21.0,19.0,-100.00,North,0,1.0,3.0,92,-99.99,,,-99.99,,2013-02-11 14:52:00,
2013-02-11 10:02:00,22.0,20.0,-100.00,NE,40,2.0,3.0,92,-99.99,,,-99.99,,2013-02-11 15:02:00,
2013-02-11 10:30:00,24.0,23.0,-100.00,NNE,25,5.0,7.0,94,-99.99,,,-99.99,,2013-02-11 15:30:00,
2013-02-11 10:42:00,24.0,22.0,-100.00,NNE,25,1.0,5.0,94,-99.99,,,-99.99,,2013-02-11 15:42:00,
2013-02-11 10:52:00,24.0,23.0,-100.00,WSW,255,0.0,3.0,94,-99.99,,,-99.99,,2013-02-11 15:52:00,
2013-02-11 11:02:00,24.0,23.0,-100.00,WSW,255,0.0,3.0,94,-99.99,,,-99.99,,2013-02-11 16:02:00,
2013-02-11 11:12:00,24.0,23.0,-100.00,NNE,25,5.0,7.0,94,-99.99,,,-99.99,,2013-02-11 16:12:00,
2013-02-11 11:22:00,24.0,23.0,-100.00,NNE,25,5.0,7.0,94,-99.99,,,-99.99,,2013-02-11 16:22:00,
2013-02-11 12:32:00,27.0,27.0,-100.00,East,85,0.0,2.0,96,-99.99,,,-99.99,,2013-02-11 17:32:00,
2013-02-11 12:42:00,28.0,27.0,-100.00,ESE,110,0.0,3.0,96,-99.99,,,-99.99,,2013-02-11 17:42:00,
2013-02-11 12:52:00,28.0,27.0,-100.00,ENE,70,1.0,2.0,96,-99.99,,,-99.99,,2013-02-11 17:52:00,
2013-02-11 13:02:00,29.0,28.0,-100.00,East,95,2.0,5.0,96,-99.99,,,-99.99,,2013-02-11 18:02:00,
2013-02-11 13:12:00,29.0,28.0,-100.00,SSW,205,2.0,5.0,96,-99.99,,,-99.99,,2013-02-11 18:12:00,
2013-02-11 13:30:00,30.0,29.0,-100.00,NNE,15,1.0,5.0,98,-99.99,,,-99.99,,2013-02-11 18:30:00,
2013-02-11 13:32:00,30.0,29.0,-100.00,South,185,2.0,3.0,97,-99.99,,,-99.99,,2013-02-11 18:32:00,
2013-02-11 14:02:00,30.0,29.0,-100.00,NE,35,0.0,3.0,97,-99.99,,,-99.99,,2013-02-11 19:02:00,
2013-02-11 14:12:00,30.0,29.0,-100.00,NNE,15,1.0,5.0,98,-99.99,,,-99.99,,2013-02-11 19:12:00,
2013-02-11 14:22:00,30.0,29.0,-100.00,NNE,15,1.0,5.0,98,-99.99,,,-99.99,,2013-02-11 19:22:00,
2013-02-11 15:02:00,30.0,30.0,-100.00,NW,310,1.0,2.0,98,-99.99,,,-99.99,,2013-02-11 20:02:00,
2013-02-11 15:12:00,31.0,30.0,-100.00,West,270,1.0,2.0,98,-99.99,,,-99.99,,2013-02-11 20:12:00,
2013-02-11 15:22:00,31.0,30.0,-100.00,NNE,25,6.0,13.0,98,-99.99,,,-99.99,,2013-02-11 20:22:00,
2013-02-11 15:32:00,30.0,30.0,-100.00,North,10,1.0,6.0,98,-99.99,,,-99.99,,2013-02-11 20:32:00,
2013-02-11 15:42:00,31.0,30.0,-100.00,SE,135,2.0,5.0,98,-99.99,,,-99.99,,2013-02-11 20:42:00,
2013-02-11 15:52:00,31.0,30.0,-100.00,SSE,155,0.0,5.0,98,-99.99,,,-99.99,,2013-02-11 20:52:00,
2013-02-11 16:00:00,32.0,31.0,-100.00,WSW,255,1.0,5.0,99,-99.99,,,-99.99,,2013-02-11 21:00:00,
2013-02-11 16:02:00,31.0,30.0,-100.00,SSW,195,3.0,6.0,99,-99.99,,,-99.99,,2013-02-11 21:02:00,
2013-02-11 16:12:00,31.0,31.0,-100.00,SSW,210,2.0,7.0,99,-99.99,,,-99.99,,2013-02-11 21:12:00,
2013-02-11 16:22:00,31.0,31.0,-100.00,SW,230,1.0,5.0,99,-99.99,,,-99.99,,2013-02-11 21:22:00,
2013-02-11 16:32:00,32.0,31.0,-100.00,WSW,250,2.0,6.0,99,-99.99,,,-99.99,,2013-02-11 21:32:00,
2013-02-11 16:42:00,32.0,31.0,-100.00,WSW,255,1.0,5.0,99,-99.99,,,-99.99,,2013-02-11 21:42:00,
2013-02-11 16:52:00,32.0,31.0,-100.00,WSW,255,1.0,5.0,99,-99.99,,,-99.99,,2013-02-11 21:52:00,
2013-02-11 19:12:00,32.0,32.0,-100.00,SSW,195,5.0,6.0,99,-99.99,,,-99.99,,2013-02-12 00:12:00,
2013-02-11 19:22:00,32.0,32.0,-100.00,WSW,255,1.0,5.0,100,-99.99,,,-99.99,,2013-02-12 00:22:00,
2013-02-11 19:42:00,32.0,32.0,-100.00,SW,235,1.0,2.0,99,-99.99,,,-99.99,,2013-02-12 00:42:00,
2013-02-11 19:52:00,32.0,32.0,-100.00,WNW,285,1.0,2.0,100,-99.99,,,-99.99,,2013-02-12 00:52:00,
2013-02-11 20:22:00,32.0,32.0,-100.00,NNE,15,1.0,2.0,100,-99.99,,,-99.99,,2013-02-12 01:22:00,
2013-02-11 20:32:00,32.0,32.0,-100.00,NNE,20,0.0,2.0,100,-99.99,,,-99.99,,2013-02-12 01:32:00,
2013-02-11 20:42:00,32.0,32.0,-100.00,South,170,1.0,2.0,100,-99.99,,,-99.99,,2013-02-12 01:42:00,
2013-02-11 22:02:00,32.0,32.0,-100.00,NW,325,1.0,3.0,100,-99.99,,,-99.99,,2013-02-12 03:02:00,
2013-02-11 22:11:00,32.0,32.0,-100.00,NW,315,1.0,3.0,100,-99.99,,,-99.99,,2013-02-12 03:11:00,
2013-02-11 22:21:00,32.0,32.0,-100.00,North,10,0.0,5.0,100,-99.99,,,-99.99,,2013-02-12 03:21:00,
2013-02-11 22:30:00,32.0,32.0,-100.00,North,10,6.0,8.0,100,-99.99,,,-99.99,,2013-02-12 03:30:00,
2013-02-11 22:32:00,32.0,30.0,-100.00,NNE,25,1.0,5.0,93,-99.99,,,-99.99,,2013-02-12 03:32:00,
2013-02-11 22:42:00,32.0,30.0,-100.00,WNW,295,0.0,2.0,93,-99.99,,,-99.99,,2013-02-12 03:42:00,
2013-02-11 22:51:00,32.0,32.0,-100.00,NNE,30,2.0,5.0,100,-99.99,,,-99.99,,2013-02-12 03:51:00,
2013-02-11 23:01:00,32.0,32.0,-100.00,NNE,30,2.0,5.0,100,-99.99,,,-99.99,,2013-02-12 04:01:00,
2013-02-11 23:11:00,32.0,32.0,-100.00,North,10,6.0,8.0,100,-99.99,,,-99.99,,2013-02-12 04:11:00,
2013-02-11 23:21:00,32.0,32.0,-100.00,North,10,6.0,8.0,100,-99.99,,,-99.99,,2013-02-12 04:21:00,